Snowfall_Accumulation
0.0 0.0 3.1 2.8 0.6 0.5 1.7 0.5 1.1 5.4 5.7 7.5 9.9 9.8 11.5 9.6 7.4 6.7 5.8 4.5 5.9 6.8 5.0 5.6 6.5 4.0 2.4 2.1 0.5 0.0 0.0 0.0 0.0 0.0 0.0 0.0 0.0 0.0 0.0 0.0 0.0 0.0 0.0 0.0
0.0 0.0 1.1 2.2 0.4 0.2 0.6 1.0 1.4 3.4 2.9 3.1 2.4 0.5 0.6 2.9 5.6 5.5 5.4 4.4 1.3 1.1 1.8 0.6 0.5 0.6 0.5 0.4 0.1 0.0 0.0 0.0 0.0 0.0 0.0 0.0 0.0 0.0 0.0 0.0 0.0 0.0 0.0 0.0
0.1 0.0 2.1 6.7 7.2 3.8 2.2 1.6 1.8 2.8 3.3 3.5 1.2 0.2 0.1 0.0 0.5 1.5 2.1 2.0 1.4 0.5 0.4 0.3 0.1 0.0 0.0 0.0 0.0 0.0 0.0 0.0 0.0 0.0 0.0 0.0 0.0 0.0 0.0 0.0 0.0 0.0 0.0 0.0
0.0 0.3 6.7 6.2 1.5 2.8 6.5 4.0 5.0 4.1 4.5 3.1 1.5 0.6 0.0 0.0 0.1 0.1 0.1 0.2 0.1 0.5 0.3 0.1 0.0 0.0 0.0 0.0 0.0 0.0 0.0 0.0 0.0 0.0 0.0 0.0 0.0 0.0 0.0 0.0 0.0 0.0 0.0 0.0
0.3 0.3 2.9 0.7 0.0 0.8 1.9 2.0 1.0 1.9 1.4 0.6 0.4 0.1 0.0 0.0 0.0 0.1 0.1 0.1 0.1 0.2 0.1 0.1 0.1 0.0 0.0 0.0 0.0 0.0 0.0 0.0 0.0 0.0 0.0 0.0 0.0 0.0 0.0 0.0 0.0 0.0 0.0 0.0
0.0 0.4 2.0 0.1 0.0 0.0 0.3 3.7 1.1 0.1 0.5 0.2 0.0 0.1 0.3 0.2 0.0 0.0 0.0 0.0 0.0 0.0 0.0 0.0 0.0 0.0 0.0 0.0 0.0 0.0 0.0 0.0 0.0 0.0 0.0 0.0 0.0 0.0 0.0 0.0 0.0 0.0 0.0 0.0
0.1 0.8 1.2 0.0 0.0 0.0 1.1 4.1 0.3 0.2 0.6 0.1 0.2 0.3 0.4 0.1 0.0 0.0 0.0 0.0 0.0 0.0 0.0 0.3 0.1 0.1 1.2 2.6 4.2 3.4 2.7 2.0 0.0 0.0 0.0 0.0 0.0 0.0 0.0 0.0 0.0 0.0 0.0 0.0
1.0 1.0 3.0 0.0 0.0 0.2 2.3 0.4 0.1 0.1 0.1 0.2 0.2 0.2 0.1 0.0 0.0 0.0 0.0 0.0 0.0 0.1 0.1 0.3 0.6 1.2 2.1 3.0 4.6 5.5 6.7 7.4 2.9 0.0 1.3 0.0 0.0 0.0 0.0 0.0 0.0 0.0 0.0 0.0
1.0 2.2 0.6 0.1 0.5 0.5 0.3 0.2 0.2 0.0 0.1 0.1 0.0 0.1 0.0 0.0 0.0 0.0 0.0 0.0 0.1 0.4 0.5 0.5 0.8 1.6 2.7 4.1 4.9 5.9 6.8 8.9 5.0 6.2 2.1 2.0 0.1 0.1 0.0 0.0 0.0 0.0 0.0 0.0
0.1 0.1 0.0 0.0 0.0 0.1 0.1 0.1 0.0 0.1 0.1 0.0 0.0 0.0 0.0 0.0 0.0 0.0 0.0 0.0 0.0 0.6 0.9 1.3 1.1 1.1 1.3 1.6 2.1 3.6 5.4 6.4 8.8 6.5 8.3 8.5 3.5 4.9 2.0 1.9 0.6 0.6 0.1 0.0
0.3 0.1 0.2 0.1 0.1 0.2 0.1 0.0 0.0 0.0 0.1 0.0 0.0 0.1 0.1 0.0 0.0 0.0 0.0 0.0 0.0 0.1 0.2 1.2 1.2 1.1 0.7 0.6 0.8 1.6 2.3 2.5 3.8 6.2 8.1 9.3 13.3 15.9 16.5 16.8 6.1 7.0 7.4 3.3
0.0 0.1 0.3 0.5 0.4 0.3 0.4 0.1 0.1 0.0 0.0 0.0 0.0 0.1 0.1 0.0 0.0 0.0 0.0 0.0 0.0 0.0 0.0 0.1 0.3 0.4 0.4 0.4 0.2 0.1 1.0 1.4 2.4 3.0 4.8 6.9 9.8 12.6 13.2 16.9 15.4 14.7 14.5 12.2
0.0 0.1 0.0 0.1 0.2 0.2 0.7 0.5 0.1 0.0 0.0 0.1 0.2 0.1 0.1 0.0 0.0 0.0 0.0 0.0 0.0 0.2 0.2 0.2 0.2 0.2 0.1 0.2 0.1 0.2 0.4 0.3 0.5 1.5 2.4 4.0 5.7 7.7 10.2 12.3 12.7 13.8 14.2 14.6
0.1 0.4 0.5 0.5 0.9 0.4 0.2 0.7 0.3 0.3 0.2 0.5 0.4 0.2 0.2 0.1 0.0 0.0 0.2 0.2 0.1 0.1 0.2 0.1 0.0 0.6 0.6 0.3 0.2 0.1 0.1 0.1 0.3 0.3 0.6 1.1 2.0 3.8 6.0 7.2 7.9 8.6 9.4 10.3
0.1 0.0 0.1 0.2 0.2 0.4 0.6 0.6 0.6 0.5 0.6 0.7 0.6 0.4 0.2 0.2 0.2 0.3 0.3 0.2 0.2 0.1 0.1 0.1 0.0 0.3 0.6 0.4 0.1 0.2 0.2 0.1 0.1 0.0 0.0 0.0 0.0 0.4 0.9 1.6 3.6 4.6 4.6 4.0
0.1 0.0 0.0 0.1 0.4 0.5 0.9 0.8 0.3 0.5 0.5 0.2 0.2 0.5 0.2 0.2 0.3 0.0 0.0 0.0 0.0 0.6 0.2 0.3 0.1 1.0 0.8 0.5 0.1 0.1 0.1 0.1 0.0 0.1 0.0 0.0 0.0 0.0 0.0 0.0 0.0 0.2 1.1 2.2
0.2 0.3 0.1 0.0 0.0 0.0 0.1 0.1 0.0 0.0 0.0 0.0 0.0 0.0 0.0 0.0 0.0 0.0 0.2 0.0 0.0 0.3 0.7 0.6 1.2 0.8 0.3 0.3 0.3 0.2 0.2 0.2 0.1 0.1 0.0 0.0 0.0 0.0 0.0 0.0 0.0 0.0 0.4 0.1
0.0 0.1 0.0 0.0 0.0 0.0 0.0 0.0 0.0 0.0 0.0 0.0 0.0 0.0 0.0 0.0 0.0 0.0 0.1 0.0 0.0 0.0 0.0 0.5 0.8 0.3 0.1 0.3 0.2 0.0 0.0 0.0 0.0 0.2 0.0 0.0 0.0 0.0 0.0 0.0 0.0 0.0 0.0 0.0
0.0 0.0 0.0 0.0 0.0 0.0 0.0 0.0 0.0 0.0 0.0 0.1 0.1 0.1 0.1 0.1 0.2 0.0 0.0 0.0 0.0 0.0 0.2 0.2 0.2 0.0 0.2 0.2 0.1 0.1 0.1 0.1 0.1 0.1 0.1 0.0 0.1 0.0 0.0 0.0 0.0 0.0 0.0 0.0
0.0 0.0 0.0 0.0 0.0 0.0 0.0 0.0 0.0 0.0 0.1 0.1 0.0 0.0 0.0 0.1 0.1 0.3 0.0 0.0 0.6 0.8 0.3 0.2 0.0 0.1 0.1 0.0 0.1 0.1 0.2 0.0 0.1 0.1 0.0 0.0 0.0 0.0 0.0 0.0 0.0 0.0 0.0 0.0
0.0 0.0 0.0 0.0 0.0 0.0 0.0 0.1 0.0 0.0 0.0 0.0 0.0 0.0 0.0 0.0 0.0 0.0 0.0 0.0 0.0 0.1 0.0 0.0 0.1 0.2 0.1 0.2 0.0 0.1 0.1 0.1 0.1 0.1 0.1 0.1 0.1 0.1 0.0 0.1 0.0 0.1 0.0 0.0
0.0 0.0 0.0 0.0 0.0 0.0 0.1 0.1 0.0 0.0 0.0 0.0 0.0 0.1 0.4 0.3 0.0 0.0 0.0 0.1 0.0 0.0 0.0 0.0 0.1 0.1 0.0 0.0 0.1 0.1 0.1 0.0 0.1 0.1 0.1 0.1 0.1 0.2 0.1 0.0 0.1 0.1 0.1 0.1
0.0 0.0 0.0 0.0 0.0 0.0 0.0 0.0 0.0 0.0 0.0 0.0 0.0 0.0 0.3 0.0 0.0 0.0 0.0 0.0 0.0 0.0 0.0 0.0 0.0 0.0 0.0 0.0 0.0 0.0 0.0 0.0 0.1 0.0 0.1 0.2 0.2 0.2 0.2 0.1 0.1 0.1 0.1 0.0
0.1 0.0 0.0 0.0 0.0 0.1 0.1 0.1 0.0 0.0 0.0 0.0 0.0 0.0 0.0 0.5 0.1 0.0 0.0 0.0 0.0 0.0 0.0 0.0 0.0 0.0 0.0 0.0 0.0 0.0 0.1 0.1 0.1 0.2 0.1 0.0 0.2 0.1 0.2 0.1 0.0 0.0 0.0 0.0
0.0 0.0 0.0 0.0 0.0 0.0 0.0 0.0 0.0 0.0 0.1 0.0 0.0 0.0 0.0 0.0 0.0 0.0 0.0 0.0 0.0 0.0 0.0 0.0 0.0 0.0 0.0 0.0 0.0 0.0 0.0 0.0 0.0 0.0 0.0 0.1 0.1 0.1 0.1 0.0 0.0 0.0 0.0 0.0
0.0 0.1 0.0 0.0 0.0 0.0 0.0 0.0 0.0 0.0 0.2 0.0 0.0 0.0 0.0 0.0 0.0 0.0 0.0 0.0 0.0 0.0 0.0 0.0 0.0 0.0 0.0 0.0 0.0 0.0 0.0 0.0 0.0 0.0 0.0 0.0 0.0 0.0 0.0 0.0 0.0 0.0 0.0 0.0
0.0 0.0 0.0 0.0 0.0 0.0 0.0 0.0 0.1 0.1 0.0 0.1 0.0 0.0 0.0 0.0 0.0 0.0 0.0 0.1 0.1 0.1 0.1 0.0 0.1 0.0 0.0 0.0 0.0 0.1 0.1 0.1 0.0 0.0 0.0 0.1 0.1 0.1 0.0 0.0 0.1 0.1 0.1 0.0